LEASLECO

Guest
Details From LEAS - Asturias
To LECO - A Coruna
Flight Number -
Tags generated
Created
Modified
Stats Distance 104 nm / 192 km
Max Altitude 5,600 ft / 1,707 m
Waypoints 3
Social Downloads 0
Likes 0
Share VATSIM

Download

Looking for another format? Having issues loading an existing format? Contact us
Advertisement - Login to hide

Notes

Basic altitude profile: - Ascent Rate: 2500ft/min - Ascent Speed: 250kts - Cruise Altitude: 18000ft - Cruise Speed: 310kts - Descent Rate: 700ft/min - Descent Speed: 230kts Options: - Use NATs: yes - Use PACOTS: yes - Use low airways: yes - Use high airways: yes

Route

LEAS LURIM LECO

ID Type Via Altitude Latitude Longitude Leg Dist Tot Dist Heading (true) Name
O LEAS APT - 0 ft / 0 m 43.56350˚ -6.03467˚ - 0 nm - Asturias
LURIM FIX - 5,600 ft / 1,707 m 43.47638˚ -6.37662˚ 15 nm 15 nm 251° / 251° -
O LECO APT - 0 ft / 0 m 43.30226˚ -8.37709˚ 87 nm 103 nm 264° / 262° A Coruna

Altitude Profile

Advertisement - Login to hide

LEAS

Details ICAO LEAS (OVD)
Name Asturias
Region Spain
Timezone Europe/Madrid (UTC+2.0)
Stats Elevation 416 ft / 127 m (AMSL)
Location 43.563496° -6.034670°
Runways 1
Magnetic Variation 1.570° W

METAR

LEAS 240830Z VRB01KT 4000 BR FEW005 OVC020 17/15 Q1016 BECMG 8000 NSW

Decode

TAF

TAF LEAS 240800Z 2409/2509 14004KT 9000 SCT015 TX20/2414Z TN14/2505Z TEMPO 2409/2410 2500 BR BCFG BKN014 TEMPO 2410/2419 05010KT TEMPO 2412/2509 SCT035TCU PROB30 TEMPO 2413/2419 SHRA TS SCT030CB BECMG 2420/2423 3000 BR TEMPO 2504/2509 1400 BCFG BKN005 PROB40 TEMPO 2505/2509 0500 FG BKN002

Decode

Departure Runways

ID Width Length Bearing (true) Bearing (mag) Surface Threshold Offset Overrun Length
11 148 ft / 45 m 7,216 ft / 2,200 m 108.09° 109.66° Asphalt 0 ft / 0 m 164 ft / 50 m
29 148 ft / 45 m 7,216 ft / 2,200 m 288.10° 289.67° Asphalt 0 ft / 0 m 164 ft / 50 m

LECO

Details ICAO LECO (LCG)
Name A Coruna
Region Spain
Timezone Europe/Madrid (UTC+2.0)
Stats Elevation 323 ft / 98 m (AMSL)
Location 43.302264° -8.377086°
Runways 1
Magnetic Variation 2.332° W

METAR

LECO 240830Z VRB02KT CAVOK 19/15 Q1015

Decode

TAF

TAF LECO 240800Z 2409/2509 04008KT 9999 FEW040 TX24/2414Z TN13/2506Z PROB40 TEMPO 2412/2509 SHRA SCT035TCU PROB30 TEMPO 2415/2418 TSRA SCT030CB TEMPO 2411/2419 34012G22KT PROB30 TEMPO 2500/2506 3000 BR

Decode

Destination Runways

ID Width Length Bearing (true) Bearing (mag) Surface Threshold Offset Overrun Length
04 148 ft / 45 m 6,371 ft / 1,942 m 30.94° 33.27° Asphalt 0 ft / 0 m 194 ft / 59 m
22 148 ft / 45 m 6,371 ft / 1,942 m 210.94° 213.27° Asphalt 0 ft / 0 m 203 ft / 62 m

Approach Navaids

Runway Type Ident Frequency Range Bearing (true) Bearing (mag) Slope Elevation
22 Localiser LCO 109.90 MHz 18 nm / 33 km 210.89° 213.22° - 329 ft / 100 m (AMSL)
22 Glidescope LCO 109.90 MHz 10 nm / 19 km 210.94° 213.27° 3.00° 323 ft / 98 m (AMSL)
22 DME LCO 109.90 MHz 18 nm / 33 km - - - 293 ft / 89 m (AMSL)

Popular Alternatives